FENGYUN 1C DEB, 31078

Orbit data source: Space-Track

FENGYUN 1C DEB, 31078 is space debris in SSO originally from a launch on Mon, 10 May 1999 UTC launched from the Taiyaun Space Center, China (TSC). Fengyun 1C debris stems from the Chinese weather satellite Fengyun-1C, which was intentionally destroyed by a Chinese anti-satellite missile in 2007. This event dramatically increased the amount of space debris, with thousands of trackable fragments posing hazards to satellites and human spaceflight. The Fengyun 1C debris cloud has become a focal point in discussions about space sustainability and the need for international regulations to prevent the creation of new debris.

Loading next visibility...
Identifier
31078, 1999-025BFY
Orbit
SSO
Country
Flag of CNCN / PRC
Related business
Manufacturer
Unknown
Mission
Spacecraft
Bus & Motor
Unknown
Mass
Unknown
Launch date (UTC)
1999-05-10 (27 years ago)
Launch vehicle
Unknown
Launch site
Taiyaun Space Center, China (TSC)
Object type
Payload
Rocket body
Debris
Shape & HBR
Unknown shape, 0.1 m
Radar Cross Section
Small (<0.1 m²)

Expand to show TLE details & history
Last TLE update: 4 days ago

TLE from 4 days ago
0 FENGYUN 1C DEB
1 31078U 99025BFY 26231.95893201  .00000789  00000-0  34760-3 0  9992
2 31078  98.8401 298.4689 0116624 148.0563  27.2624 14.22592012  3996
Epoch: 2026-08-19T23:00Z
TLE epoch observation values (Epoch: 2026-08-19T23:00:51.725Z)
Latitude
3.92022°
Longitude
165.55584°
Altitude
744.697 km
Speed
7.521 km/s
True Right ascension
07h 56m 18s
True Declination
3° 53' 48"
Sunlit
Object was in daylight at epoch
Visualization orbit readout
Latitude
Unknown
Longitude
Unknown
Altitude
Unknown
Speed
Unknown
Apparent Right ascension
Unknown
Apparent Declination
Unknown
Sunlit
N/A
Visualization observer readout
Local Sidereal Time
01:55:09
Azimuth
Unknown
Elevation
Unknown
Doppler factor
Unknown
Orbital elements
Apogee altitude
897.636 km
Perigee altitude
729.886 km
Semi-major axis
7,191.898 km
Eccentricity
0.01166
Inclination
98.8401°
RAAN
298.4689°
Arg. of periapsis
148.0563°
True anomaly
27.88259°
Mean anomaly
27.2624°
Eccentric anomaly
27.57168°
Mean motion
3.55859 °/min
Orbital period
101.16 mins
BSTAR
0.0003476
Loading maneuver chart data...
Computing Atmospheric mass density...

Documentation

Showing up to 5 results
|